COSMOS 2251 DEB, 37487

Orbit data source: Space-Track

COSMOS 2251 DEB, 37487 is space debris in LEO originally from a launch on Wed, 16 Jun 1993 UTC launched from the Plesetsk Missile And Space Complex (PKMTR). The debris from Iridium 33, an American commercial communications satellite, has been tracked extensively since its accidental collision with the defunct Russian satellite Cosmos 2251 in 2009. This event, occurring at high speed in low Earth orbit (LEO), generated thousands of pieces of space debris, significantly increasing the risk of further collisions. The Iridium 33 debris cloud has impacted space traffic management and orbital debris mitigation strategies, making it a subject of ongoing study in space situational awareness.

Loading next visibility...
Identifier
37487, 1993-036BLQ
Orbit
LEO
Country
Flag of CISCIS
Related business
Manufacturer
Unknown
Mission
Spacecraft
Bus & Motor
Unknown
Mass
Unknown
Launch date (UTC)
1993-06-16 (33 years ago)
Launch vehicle
Unknown
Launch site
Plesetsk Missile And Space Complex (PKMTR)
Object type
Payload
Rocket body
Debris
Shape & HBR
Unknown shape, 0.1 m
Radar Cross Section
Small (<0.1 m²)

Expand to show TLE details & history
Last TLE update: 21 hours ago

TLE from 21 hours ago
0 COSMOS 2251 DEB
1 37487U 93036BLQ 26162.35354097  .00016981  00000-0  16859-2 0  9999
2 37487  73.8950 189.5890 0030884 338.8108  21.1791 14.91368562839294
Epoch: 2026-06-11T08:29Z
TLE epoch observation values (Epoch: 2026-06-11T08:29:05.939Z)
Latitude
-0.0001°
Longitude
162.61567°
Altitude
576.265 km
Speed
7.584 km/s
True Right ascension
12h 38m 21s
True Declination
0° 00' 00"
Sunlit
Object was in daylight at epoch
Visualization orbit readout
Latitude
Unknown
Longitude
Unknown
Altitude
Unknown
Speed
Unknown
Apparent Right ascension
Unknown
Apparent Declination
Unknown
Sunlit
N/A
Visualization observer readout
Local Sidereal Time
15:36:37
Azimuth
Unknown
Elevation
Unknown
Doppler factor
Unknown
Orbital elements
Apogee altitude
612.767 km
Perigee altitude
569.719 km
Semi-major axis
6,969.38 km
Eccentricity
0.00309
Inclination
73.895°
RAAN
189.589°
Arg. of periapsis
338.8108°
True anomaly
21.30742°
Mean anomaly
21.1791°
Eccentric anomaly
21.24321°
Mean motion
3.73037 °/min
Orbital period
96.51 mins
BSTAR
0.0016859
Loading maneuver chart data...
Computing Atmospheric mass density...

Documentation

Showing up to 5 results
|